Pampa, TX

8:49 AM CDT on October 19, 2017 (GMT -0500)
Perry Lefors

Weather History for KPPA - February, 2013

Change the Weather History Date:

Tuesday, February 5, 2013

  Actual Average Record
Temperature  
Mean Temperature 46 °F -  
Max Temperature 62 °F 45 °F 73 °F (2009)
Min Temperature 30 °F 22 °F -6 °F (1989)
Degree Days  
Heating Degree Days 19    
Moisture  
Dew Point 21 °F    
Average Humidity 43    
Maximum Humidity 64    
Minimum Humidity 19    
Precipitation  
Precipitation 0.00 in - - ()
Sea Level Pressure  
Sea Level Pressure 29.97 in    
Wind  
Wind Speed 11 mph (SSE)    
Max Wind Speed 16 mph    
Max Gust Speed 22 mph    
Visibility 10 miles    
Events      
Averages and records for this station are not official NWS values.
T = Trace of Precipitation, MM = Missing Value Source: NWS Daily Summary

Daily Weather History Graph

Daily Weather History Graph

Search for Another Location

Airport or City:

Trip Planner

Search our weather history database for the weather conditions in past years. The results will help you decide how hot, cold, wet, or windy it might be!

Date:

Astronomy

Feb. 05, 2013 Rise Set
Actual Time 7:40 AM CST 6:16 PM CST
Civil Twilight 7:13 AM CST 6:42 PM CST
Nautical Twilight 6:43 AM CST 7:13 PM CST
Astronomical Twilight 6:13 AM CST 7:42 PM CST
Moon 3:20 AM CST (2/5) 1:39 PM CST (2/5)
Length of Visible Light 11h 29m
Length of Day
10h 35m
Waning Crescent, 26% of the Moon is Illuminated
Feb 5
Waning Crescent
Feb 10
New
Feb 17
First Quarter
Feb 25
Full
Mar 4
Last Quarter

Hourly Weather History & Observations

Time (CST) Temp. Windchill Dew Point Humidity Pressure Visibility Wind Dir Wind Speed Gust Speed Precip Events Conditions
12:15 AM 30.2 °F 20.8 °F 17.6 °F 60% 29.95 in 10.0 mi South 11.5 mph - N/A   Clear
12:35 AM 32.0 °F 23.6 °F 19.4 °F 60% 29.95 in 10.0 mi South 10.4 mph - N/A   Clear
12:55 AM 32.0 °F 23.6 °F 19.4 °F 60% 29.94 in 10.0 mi South 10.4 mph - N/A   Clear
1:15 AM 35.6 °F 28.0 °F 21.2 °F 56% 29.93 in 10.0 mi South 10.4 mph - N/A   Clear
1:35 AM 35.6 °F 27.5 °F 21.2 °F 56% 29.92 in 10.0 mi South 11.5 mph - N/A   Clear
1:55 AM 33.8 °F 25.8 °F 21.2 °F 60% 29.92 in 10.0 mi South 10.4 mph - N/A   Clear
2:15 AM 33.8 °F 25.3 °F 21.2 °F 60% 29.92 in 10.0 mi South 11.5 mph - N/A   Clear
2:35 AM 35.6 °F 27.5 °F 21.2 °F 56% 29.91 in 10.0 mi South 11.5 mph - N/A   Clear
2:55 AM 35.6 °F 26.6 °F 21.2 °F 56% 29.91 in 10.0 mi South 13.8 mph - N/A   Clear
3:15 AM 33.8 °F 25.8 °F 21.2 °F 60% 29.91 in 10.0 mi South 10.4 mph - N/A   Clear
3:35 AM 33.8 °F 24.8 °F 21.2 °F 60% 29.91 in 10.0 mi South 12.7 mph - N/A   Clear
3:55 AM 33.8 °F 24.3 °F 21.2 °F 60% 29.92 in 10.0 mi South 13.8 mph - N/A   Clear
4:15 AM 33.8 °F 24.3 °F 21.2 °F 60% 29.92 in 10.0 mi South 13.8 mph - N/A   Clear
4:35 AM 33.8 °F 24.8 °F 21.2 °F 60% 29.92 in 10.0 mi South 12.7 mph - N/A   Clear
4:55 AM 33.8 °F 24.8 °F 21.2 °F 60% 29.92 in 10.0 mi South 12.7 mph - N/A   Clear
5:15 AM 33.8 °F 24.8 °F 21.2 °F 60% 29.92 in 10.0 mi South 12.7 mph - N/A   Clear
5:35 AM 33.8 °F 24.3 °F 21.2 °F 60% 29.92 in 10.0 mi South 13.8 mph - N/A   Clear
5:55 AM 33.8 °F 24.8 °F 21.2 °F 60% 29.92 in 10.0 mi South 12.7 mph - N/A   Clear
6:15 AM 32.0 °F 23.0 °F 21.2 °F 64% 29.93 in 10.0 mi South 11.5 mph - N/A   Clear
6:35 AM 32.0 °F 23.6 °F 21.2 °F 64% 29.94 in 10.0 mi South 10.4 mph - N/A   Clear
6:55 AM 32.0 °F 23.6 °F 21.2 °F 64% 29.94 in 10.0 mi South 10.4 mph - N/A   Clear
7:15 AM 32.0 °F 24.2 °F 19.4 °F 60% 29.95 in 10.0 mi South 9.2 mph - N/A   Clear
7:35 AM 30.2 °F 21.9 °F 19.4 °F 64% 29.96 in 10.0 mi South 9.2 mph - N/A   Clear
7:55 AM 30.2 °F 21.9 °F 19.4 °F 64% 29.96 in 10.0 mi South 9.2 mph - N/A   Clear
8:15 AM 32.0 °F 24.2 °F 21.2 °F 64% 29.97 in 10.0 mi SSW 9.2 mph - N/A   Clear
8:35 AM 33.8 °F 27.7 °F 21.2 °F 60% 29.97 in 10.0 mi SSW 6.9 mph - N/A   Clear
9:15 AM 42.8 °F 37.5 °F 21.2 °F 42% 29.98 in 10.0 mi SSW 9.2 mph - N/A   Clear
9:35 AM 46.4 °F 41.9 °F 19.4 °F 34% 29.98 in 10.0 mi SW 9.2 mph - N/A   Clear
9:55 AM 50.0 °F - 19.4 °F 30% 29.98 in 10.0 mi SW 9.2 mph - N/A   Clear
10:15 AM 50.0 °F - 19.4 °F 30% 29.99 in 10.0 mi SW 6.9 mph - N/A   Clear
10:35 AM 50.0 °F - 19.4 °F 30% 30.00 in 10.0 mi West 4.6 mph - N/A   Clear
10:55 AM 51.8 °F - 19.4 °F 28% 30.00 in 10.0 mi West 4.6 mph - N/A   Clear
11:15 AM 53.6 °F - 19.4 °F 26% 30.00 in 10.0 mi WNW 5.8 mph - N/A   Clear
11:35 AM 53.6 °F - 19.4 °F 26% 30.01 in 10.0 mi North 4.6 mph - N/A   Clear
11:55 AM 53.6 °F - 19.4 °F 26% 30.01 in 10.0 mi NNE 6.9 mph - N/A   Clear
12:15 PM 53.6 °F - 21.2 °F 28% 30.01 in 10.0 mi North 9.2 mph - N/A   Clear
12:35 PM 53.6 °F - 21.2 °F 28% 30.00 in 10.0 mi North 9.2 mph - N/A   Clear
12:55 PM 53.6 °F - 21.2 °F 28% 30.00 in 10.0 mi North 8.1 mph 16.1 mph N/A   Clear
1:15 PM 55.4 °F - 21.2 °F 26% 29.99 in 10.0 mi NNE 11.5 mph 16.1 mph N/A   Clear
1:35 PM 57.2 °F - 21.2 °F 25% 29.99 in 10.0 mi NNE 13.8 mph - N/A   Clear
1:55 PM 59.0 °F - 21.2 °F 23% 29.98 in 10.0 mi NE 15.0 mph 20.7 mph N/A   Clear
2:15 PM 60.8 °F - 21.2 °F 22% 29.97 in 10.0 mi NE 13.8 mph 18.4 mph N/A   Clear
2:35 PM 62.6 °F - 19.4 °F 19% 29.97 in 10.0 mi SE 13.8 mph 17.3 mph N/A   Clear
2:55 PM 62.6 °F - 19.4 °F 19% 29.97 in 10.0 mi ESE 12.7 mph 19.6 mph N/A   Clear
3:15 PM 62.6 °F - 21.2 °F 20% 29.96 in 10.0 mi ESE 16.1 mph 20.7 mph N/A   Clear
3:35 PM 62.6 °F - 21.2 °F 20% 29.97 in 10.0 mi SE 11.5 mph 18.4 mph N/A   Clear
3:55 PM 60.8 °F - 21.2 °F 22% 29.97 in 10.0 mi ESE 13.8 mph 18.4 mph N/A   Clear
4:15 PM 60.8 °F - 21.2 °F 22% 29.97 in 10.0 mi ESE 13.8 mph 19.6 mph N/A   Clear
4:35 PM 60.8 °F - 21.2 °F 22% 29.97 in 10.0 mi ESE 13.8 mph - N/A   Clear
4:55 PM 60.8 °F - 21.2 °F 22% 29.97 in 10.0 mi ESE 12.7 mph 21.9 mph N/A   Clear
5:35 PM 59.0 °F - 21.2 °F 23% 29.97 in 10.0 mi SE 11.5 mph - N/A   Clear
5:55 PM 55.4 °F - 21.2 °F 26% 29.98 in 10.0 mi SE 10.4 mph - N/A   Clear
6:15 PM 51.8 °F - 21.2 °F 30% 29.98 in 10.0 mi SSE 8.1 mph - N/A   Clear
6:35 PM 50.0 °F - 21.2 °F 32% 29.99 in 10.0 mi SE 6.9 mph - N/A   Clear
6:55 PM 50.0 °F - 21.2 °F 32% 29.99 in 10.0 mi SE 8.1 mph - N/A   Clear
7:15 PM 46.4 °F 42.4 °F 21.2 °F 37% 30.00 in 10.0 mi SE 8.1 mph - N/A   Clear
7:35 PM 46.4 °F 42.9 °F 21.2 °F 37% 30.00 in 10.0 mi SE 6.9 mph - N/A   Clear
7:55 PM 46.4 °F 42.4 °F 21.2 °F 37% 30.00 in 10.0 mi SE 8.1 mph - N/A   Clear
8:15 PM 46.4 °F 42.4 °F 21.2 °F 37% 30.01 in 10.0 mi ESE 8.1 mph - N/A   Clear
8:35 PM 44.6 °F 40.2 °F 23.0 °F 43% 30.01 in 10.0 mi ESE 8.1 mph - N/A   Clear
9:15 PM 42.8 °F 37.0 °F 23.0 °F 46% 30.02 in 10.0 mi SE 10.4 mph - N/A   Clear
9:35 PM 41.0 °F 35.8 °F 23.0 °F 49% 30.02 in 10.0 mi SE 8.1 mph - N/A   Clear
9:55 PM 41.0 °F 35.8 °F 23.0 °F 49% 30.02 in 10.0 mi ESE 8.1 mph - N/A   Clear
10:15 PM 41.0 °F 35.8 °F 23.0 °F 49% 30.03 in 10.0 mi ESE 8.1 mph - N/A   Clear
10:35 PM 39.2 °F 34.2 °F 24.8 °F 56% 30.03 in 10.0 mi ESE 6.9 mph - N/A   Clear
10:55 PM 41.0 °F 35.2 °F 24.8 °F 53% 30.02 in 10.0 mi SE 9.2 mph - N/A   Clear
11:15 PM 41.0 °F 35.8 °F 26.6 °F 57% 30.02 in 10.0 mi SE 8.1 mph - N/A   Clear
11:35 PM 39.2 °F 33.6 °F 24.8 °F 56% 30.02 in 10.0 mi SE 8.1 mph - N/A   Clear
11:55 PM 37.4 °F 31.4 °F 24.8 °F 60% 30.01 in 10.0 mi SSE 8.1 mph - N/A   Clear